K7KWR Weather Reports


Display with metric or nautical units.
time (UTC)temp
F
wind
direction
speed
MPH
gust
MPH
rain 1hr
in
rain 24hr
in
rain mn
in
humidity
%
barometer
mb
20200120210526 60 181 0.0 0.0 0.01 0.00 0.00
20200120203526 61 181 0.0 0.0 0.01 0.00 0.00
20200120200526 60 193 0.0 0.0 0.01 0.00 0.00
20200120195026 59 191 0.0 0.0 0.01 0.00 0.00
20200120193526 60 238 0.0 0.0 0.01 0.00 0.00
20200120192026 60 229 0.0 0.0 0.01 0.00 0.00
20200120190528 60 201 0.0 0.0 0.01 0.00 0.00
20200120185026 61 150 0.0 0.0 0.01 0.00 0.00
20200120183526 68 150 0.0 0.0 0.01 0.00 0.00
20200120180527 62 118 0.0 0.0 0.01 0.00 0.00
20200120175026 57 90 0.0 0.0 0.01 0.00 0.00
20200120173526 56 90 0.0 0.0 0.01 0.00 0.00
20200120172026 56 162 0.0 0.0 0.01 0.00 0.00
20200120165026 55 312 0.0 0.0 0.01 0.00 0.00
20200120163527 51 312 0.0 0.0 0.01 0.00 0.00
20200120162026 47 312 0.0 0.0 0.01 0.00 0.00
20200120155026 46 312 0.0 0.0 0.01 0.00 0.00
20200120153557 45 107 0.0 0.0 0.01 0.00 0.00
20200120153525 45 107 0.0 0.0 0.01 0.00 0.00
20200120152025 45 107 0.0 0.0 0.01 0.00 0.00
20200120150526 46 107 0.0 0.0 0.01 0.00 0.00
20200120145026 47 107 0.0 0.0 0.01 0.00 0.00
20200120143558 47 118 0.0 0.0 0.01 0.00 0.00
20200120143525 47 118 0.0 0.0 0.01 0.00 0.00
20200120140525 48 111 0.0 0.0 0.01 0.00 0.00
20200120135025 46 122 0.0 0.0 0.01 0.00 0.00
20200120125025 40 122 0.0 0.0 0.01 0.00 0.00
20200120123526 40 122 0.0 0.0 0.01 0.00 0.00
20200120120526 41 122 0.0 0.0 0.01 0.00 0.00
20200120115025 40 122 0.0 0.0 0.01 0.00 0.00
20200120113525 41 122 0.0 0.0 0.01 0.00 0.00
20200120112026 41 122 0.0 0.0 0.01 0.00 0.00
20200120105025 41 122 0.0 0.0 0.01 0.00 0.00
20200120103525 41 122 0.0 0.0 0.01 0.00 0.00
20200120102025 41 122 0.0 0.0 0.01 0.00 0.00
20200120100525 41 122 0.0 0.0 0.01 0.00 0.00
20200120093525 42 122 0.0 0.0 0.01 0.00 0.00
20200120092025 43 122 0.0 0.0 0.01 0.00 0.00
20200120085026 46 122 0.0 0.0 0.01 0.00 0.00
20200120083525 46 122 0.0 0.0 0.01 0.00 0.00
20200120082025 47 122 0.0 0.0 0.01 0.00 0.00
20200120080525 47 122 0.0 0.0 0.01 0.00 0.00
20200120075025 47 98 0.0 0.0 0.01 0.00 0.00
20200120073526 47 115 0.0 0.0 0.01 0.00 0.00
20200120072025 47 94 0.0 0.0 0.01 0.00 0.00
20200120070525 47 68 0.0 0.0 0.01 0.00 0.00
20200120065025 46 68 0.0 0.0 0.01 0.00 0.00
20200120063525 47 131 2.0 0.0 0.01 0.00 0.00
20200120062027 47 150 3.0 0.0 0.01 0.00 0.00
20200120060525 47 70 0.0 0.0 0.01 0.00 0.00
20200120055025 41 69 0.0 0.0 0.01 0.00 0.00
20200120053525 47 69 0.0 0.0 0.01 0.00 0.00
20200120052025 42 101 0.0 0.0 0.01 0.00 0.00
20200120050525 43 101 0.0 0.0 0.01 0.00 0.00
20200120045025 43 101 0.0 0.0 0.01 0.00 0.00
20200120043525 46 101 0.0 0.0 0.01 0.00 0.00
20200120042025 45 101 0.0 0.0 0.01 0.00 0.00
20200120040525 45 101 0.0 0.0 0.01 0.00 0.00
20200120035025 47 101 0.0 0.0 0.01 0.00 0.00
20200120033524 48 101 0.0 0.0 0.01 0.00 0.00
20200120032024 49 101 0.0 0.0 0.01 0.00 0.00
20200120030524 50 107 5.0 0.0 0.01 0.00 0.00
20200120025024 50 121 5.0 0.0 0.01 0.00 0.00
20200120023524 50 120 3.0 0.0 0.01 0.00 0.00
20200120022024 51 104 6.0 0.0 0.01 0.00 0.00
20200120020524 51 100 7.0 0.0 0.01 0.00 0.00
20200120015024 51 100 8.0 0.0 0.01 0.00 0.00
20200120013524 52 118 6.0 0.0 0.01 0.00 0.00
20200120012024 52 129 4.0 0.0 0.01 0.00 0.00
20200120010524 53 114 0.0 0.0 0.01 0.00 0.00
20200120005024 54 108 4.0 0.0 0.01 0.00 0.00
20200120002024 57 98 5.0 0.0 0.01 0.00 0.00
20200120000526 59 96 4.0 0.0 0.01 0.00 0.00
20200119235024 61 72 9.0 0.0 0.01 0.00 0.00
20200119233524 62 98 6.0 0.0 0.01 0.00 0.00
20200119232024 62 101 4.0 0.0 0.01 0.00 0.00
20200119230524 63 72 5.0 0.0 0.01 0.00 0.00
20200119225024 63 108 4.0 0.0 0.01 0.00 0.00
20200119223524 64 84 4.0 0.0 0.01 0.00 0.00
20200119222024 64 125 7.0 0.0 0.01 0.00 0.00
20200119220524 65 107 7.0 0.0 0.01 0.00 0.00
20200119215024 64 100 2.0 0.0 0.01 0.00 0.00
20200119213524 65 118 8.0 0.0 0.01 0.00 0.00
20200119212024 64 138 8.0 0.0 0.01 0.00 0.00